Weather History for Berlin, NH

Change the Weather History Date:

Saturday, January 2, 1999

  Actual Average Record
Temperature  
Mean Temperature -3 °F -  
Max Temperature 5 °F 25 °F 42 °F (2011)
Min Temperature -11 °F 5 °F -15 °F (2009)
Degree Days  
Heating Degree Days 68    
Moisture  
Dew Point -14 °F    
Average Humidity 59    
Maximum Humidity 72    
Minimum Humidity 48    
Precipitation  
Precipitation 0.00 in - - ()
Sea Level Pressure  
Sea Level Pressure 30.50 in    
Wind  
Wind Speed 6 mph (WNW)    
Max Wind Speed 13 mph    
Max Gust Speed 22 mph    
Visibility 10 miles    
Events      
Averages and records for this station are not official NWS values.
T = Trace of Precipitation, MM = Missing Value Source: NWS Daily Summary

Daily Weather History Graph

Daily Weather History Graph

Search for Another Location

Airport:

Trip Planner

Search our weather history database for the weather conditions in past years. The results will help you decide how hot, cold, wet, or windy it might be!

Date:

Astronomy

Jan. 02, 1999 Rise Set
Actual Time 7:21 AM EST 4:15 PM EST
Civil Twilight 6:48 AM EST 4:49 PM EST
Nautical Twilight 6:11 AM EST 5:26 PM EST
Astronomical Twilight 5:36 AM EST 6:01 PM EST
Moon 5:14 PM EST (1/2) 7:30 AM EST (1/2)
Length of Visible Light 10h 01m
Length of Day
8h 54m
Full, 100% of the Moon is Illuminated
Jan 2
Full
Jan 9
Last Quarter
Jan 17
New
Jan 24
First Quarter
Jan 31
Full

Hourly Weather History & Observations

Time (EST) Temp. Windchill Dew Point Humidity Pressure Visibility Wind Dir Wind Speed Gust Speed Precip Events Conditions
12:52 AM -11.9 °F -27.3 °F -20.9 °F 64% 30.47 in 4.0 mi Variable 6.9 mph - N/A   Haze
1:52 AM -11.9 °F -25.7 °F -23.1 °F 58% 30.47 in 10.0 mi Variable 5.8 mph 16.1 mph N/A   Scattered Clouds
2:52 AM -11.9 °F -31.0 °F -23.1 °F 58% 30.48 in 10.0 mi WNW 10.4 mph 20.7 mph N/A   Partly Cloudy
3:52 AM -11.9 °F -29.9 °F -22.0 °F 61% 30.50 in 10.0 mi West 9.2 mph - N/A   Clear
4:52 AM -11.9 °F -21.5 °F -22.0 °F 61% 30.50 in 10.0 mi Variable 3.5 mph - N/A   Clear
5:52 AM -11.0 °F -26.2 °F -20.9 °F 62% 30.50 in 10.0 mi West 6.9 mph - N/A   Clear
6:52 AM -11.0 °F -22.8 °F -20.9 °F 62% 30.51 in 10.0 mi West 4.6 mph - N/A   Clear
7:52 AM -9.9 °F -19.2 °F -20.9 °F 59% 30.51 in 10.0 mi Variable 3.5 mph - N/A   Clear
8:52 AM -7.1 °F -19.9 °F -20.0 °F 53% 30.51 in 10.0 mi West 5.8 mph - N/A   Clear
9:52 AM -4.0 °F -22.1 °F -18.0 °F 51% 30.53 in 10.0 mi West 11.5 mph 18.4 mph N/A   Clear
10:52 AM -2.0 °F -20.5 °F -16.1 °F 51% 30.52 in 10.0 mi West 12.7 mph 21.9 mph N/A   Clear
11:52 AM -0.9 °F -14.1 °F -15.0 °F 52% 30.50 in 10.0 mi WNW 6.9 mph 19.6 mph N/A   Clear
12:52 PM 1.9 °F -12.9 °F -13.0 °F 50% 30.48 in 10.0 mi West 9.2 mph 19.6 mph N/A   Clear
1:52 PM 3.9 °F -8.2 °F -11.9 °F 48% 30.48 in 10.0 mi Variable 6.9 mph 18.4 mph N/A   Clear
2:52 PM 5.0 °F -10.8 °F -11.0 °F 48% 30.49 in 10.0 mi West 11.5 mph - N/A   Clear
3:52 PM 5.0 °F -5.6 °F -9.9 °F 50% 30.50 in 10.0 mi Variable 5.8 mph - N/A   Clear
4:52 PM 3.9 °F -5.3 °F -9.9 °F 53% 30.52 in 10.0 mi Variable 4.6 mph - N/A   Clear
5:52 PM 3.0 °F -9.3 °F -9.0 °F 57% 30.52 in 10.0 mi North 6.9 mph - N/A   Clear
6:52 PM 1.0 °F - -8.0 °F 66% 30.51 in 10.0 mi Calm Calm - N/A   Clear
7:52 PM -0.9 °F - -8.0 °F 72% 30.50 in 10.0 mi Calm Calm - N/A   Clear
8:52 PM 1.0 °F -6.7 °F -6.0 °F 72% 30.52 in 9.0 mi South 3.5 mph - N/A   Clear
9:52 PM 3.0 °F -4.4 °F -5.1 °F 69% 30.52 in 10.0 mi ENE 3.5 mph - N/A   Overcast
10:52 PM 3.9 °F - -5.1 °F 66% 30.50 in 10.0 mi Calm Calm - N/A   Clear
11:52 PM 3.9 °F - -4.0 °F 70% 30.48 in 10.0 mi Calm Calm - N/A   Clear